User: anonymous
Location: Caltech
(34.1382°N, 118.1253°W)
Time: 16:50:29
(UTC-07:00)
Language:

Cosmos 1508 Rocket - Orbit

View from above orbital plane
View from above orbital plane
View from above satellite
View from above satellite

Ground track
Ground track

The orbit data is extracted from the following two-line orbital elements,

1 14484U 83111B   14203.81884436  .00022023  00000-0  32439-3 0  5761
2 14484 082.8418 294.6864 0211529 146.4335 352.0831 15.33498835578011
Epoch (UTC): 22 July 2014 19:39:08
Eccentricity: 0.0211529
inclination: 82.8418°
perigee height: 320 km
apogee height: 610 km
right ascension of ascending node: 294.6864°
argument of perigee: 146.4335°
revolutions per day: 15.33498835
mean anomaly at epoch: 352.0831°
orbit number at epoch: 57801

The dashed part of the orbit path shows where the satellite is in the earth's shadow,  

DLR